Location: Alt?nova Orta
(36.9295°N, 30.7847°E)
Time: 10:10:00
(UTC+00:00)

Cosmos 2297 - Pass Details

Date: 17 February 2020
Orbit: 837 x 858 km, 71.0° (Epoch: 08 April)

Event Time Altitude Azimuth Distance (km) Brightness Sun altitude
Exits shadow 02:54:36 35° 319° (NW) 1,333 4.4 -22.5°
Maximum altitude 02:56:55 63° 252° (WSW) 929 3.6 -22.0°
Drops below altitude 10° 03:02:28 10° 172° (S) 2,449 6.2 -20.9°
Sets 03:04:55 0° 169° (S) 3,383 7.0 -20.4°
